Miscellaneous Local Product
Issued by NWS Hastings, NE

Home | Current Version | Previous Version | Graphics & Text | Print | Product List | Glossary On
Versions: 1 2 3 4 5 6 7 8 9 10 11 12 13 14 15 16 17 18 19 20 21 22 23 24 25 26 27 28 29 30 31 32 33 34 35 36 37 38 39 40 41 42 43 44 45 46 47 48 49 50
000
AXUS43 KGID 262202
MISGRI

GID CWA HOURLY WEATHER ROUNDUP
NATIONAL WEATHER SERVICE HASTINGS NE
500 PM CDT WED AUG 26 2015

NOTE: "FAIR" INDICATES FEW OR NO CLOUDS BELOW 12,000 FEET WITH NO
SIGNIFICANT WEATHER AND/OR OBSTRUCTIONS TO VISIBILITY.

...SOUTH CENTRAL NEBRASKA...

CITY           SKY/WX    TMP DP  RH WIND       PRES   REMARKS
GRAND ISLAND   SUNNY     86  66  51 S17G23    30.07F
HASTINGS       SUNNY     87  68  52 SE15      30.06F HX  90
KEARNEY        SUNNY     90  70  51 SE16      30.05F HX  95
ORD            SUNNY     87  68  52 S14       30.03F HX  90
YORK           SUNNY     82  66  57 SE10      30.08F
AURORA         SUNNY     84  66  54 S10G16    30.07F
LEXINGTON      SUNNY     88  72  59 SE12      30.05F HX  94
HOLDREGE       SUNNY     89  68  48 S14       30.05F HX  93
HEBRON         SUNNY     86  61  42 SE10G18   30.07F

...NEBRASKA PANHANDLE...

CITY           SKY/WX    TMP DP  RH WIND       PRES   REMARKS
CHADRON        SUNNY    101  50  18 S12       29.95F HX  98
ALLIANCE       SUNNY     99  45  15 SE10      30.01F HX  95
SCOTTSBLUFF    SUNNY     97  56  25 E9        30.00F HX  95
SIDNEY         SUNNY    100  39  12 S12G21    30.06F HX  95

...WESTERN AND NORTH CENTRAL NEBRASKA...

CITY           SKY/WX    TMP DP  RH WIND       PRES   REMARKS
VALENTINE      SUNNY     95  60  31 S14       30.00F HX  95
AINSWORTH      MOSUNNY   92  66  42 SE9       30.03F HX  95
ONEILL         PTSUNNY   85  67  53 SE12      30.06R
BROKEN BOW     SUNNY     91  69  48 SE17G26   30.05F HX  96
IMPERIAL       SUNNY    102  49  16 SE8       30.01F HX  99
NORTH PLATTE   SUNNY     91  67  44 SE13      30.02F HX  94
MCCOOK         SUNNY    101  61  26 SE13      30.00F HX 102

...EASTERN NEBRASKA...

CITY           SKY/WX    TMP DP  RH WIND       PRES   REMARKS
NORFOLK        SUNNY     82  65  56 SE12      30.07F
SO SIOUX CITY  SUNNY     77  61  57 S9        30.10F
TEKAMAH        SUNNY     77  63  61 SE9       30.10S
COLUMBUS       SUNNY     81  64  57 SE8       30.08S
ALBION         SUNNY     83  65  54 S14G20    30.07F
OMAHA EPPLEY   MOSUNNY   77  63  61 SE13G21   30.10F
OFFUTT AFB     SUNNY     78  64  61 SE9       30.09F
MILLARD        SUNNY     77  64  62 SE9       30.09F
LINCOLN        SUNNY     85  62  46 SE12      30.08F
NEBRASKA CITY  SUNNY     78  55  44 SE7       30.10F
BEATRICE       SUNNY     83  61  46 S14       30.08F
FALLS CITY     MOSUNNY   80  63  55 SE8       30.09F

...NORTHERN KANSAS...

CITY           SKY/WX    TMP DP  RH WIND       PRES   REMARKS
GOODLAND       SUNNY     98  34  10 S15G23    30.08F HX  92
HILL CITY      SUNNY    101  56  22 S6        30.00F HX 100
NORTON         CLEAR     95  54  24 SE9       30.00F HX  93
PHILLIPSBURG   SUNNY    100  63  28 E13G18    30.01F HX 102
SMITH CENTER   SUNNY     91  70  49 E18       30.04F HX  97
HAYS           SUNNY    100  63  28 S18       30.01F HX 102
RUSSELL        SUNNY     97  66  36 S16G24    30.02F HX 100
CONCORDIA      SUNNY     87  67  51 SE15      30.06F HX  90
SALINA         SUNNY     91  72  53 S15       30.05F HX  98
TOPEKA         SUNNY     83  59  44 SE10      30.11F



USA.gov is the U.S. government's official web portal to all federal, state and local government web resources and services.